Tracking 19638 objects as of 19-May-2019
HD Live streaming from Space Station
objects crossing your sky now

COSMOS 862

Track COSMOS 862 now!
COSMOS 862 is classified as:


NORAD ID: 9495
Int'l Code: 1976-105A
Perigee: 5,076.4 km
Apogee: 35,335.6 km
Inclination: 69.7 °
Period: 718.7 minutes
Semi major axis: 26577 km
RCS: 11.7728 m2 (large)
Launch date: October 22, 1976
Source: Commonwealth of Independent States (former USSR) (CIS)
Launch site: PLESETSK MISSILE AND SPACE COMPLEX (PKMTR)
aabbcc
Your satellite tracking list
Your tracking list is empty




NASA's NSSDC Master Catalog

Two Line Element Set (TLE):
1  9495U 76105A   19136.30838079 +.00000930 +00000-0 +00000-0 0  9996
2  9495 069.6518 194.3615 5692735 271.5643 027.6960 02.00374826189738
Source of the keplerian elements: AFSPC